User: anonymous   Login
Location: Syke, Rochdale
(53.6121°N, 2.1588°W)
Time: 06:31:27
(UTC+01:00)
Language:

Oscar 11 - Orbit

View from above orbital plane
View from above orbital plane
View from above satellite
View from above satellite

Ground track
Ground track

The orbit data is extracted from the following two-line orbital elements,

1 14781U 84021B   19045.96224524 +.00000045 +00000-0 +11685-4 0  9993
2 14781 097.6243 076.4449 0008746 016.3026 343.8468 14.83063537859425
Epoch (UTC): 14 February 2019 23:05:37
Eccentricity: 0.0008746
inclination: 97.6243°
perigee height: 613 km
apogee height: 626 km
right ascension of ascending node: 76.4449°
argument of perigee: 16.3026°
revolutions per day: 14.83063537
mean anomaly at epoch: 343.8468°
orbit number at epoch: 85942

The dashed part of the orbit path shows where the satellite is in the earth's shadow,  

DLR